Weather History for KOSU - March, 2014

Change the Weather History Date:

Saturday, March 29, 2014

  Actual Average Record
Temperature  
Mean Temperature 36 °F -  
Max Temperature 39 °F 54 °F 80 °F (1998)
Min Temperature 32 °F 35 °F 19 °F (2015)
Degree Days  
Heating Degree Days 30    
Moisture  
Dew Point 32 °F    
Average Humidity 90    
Maximum Humidity 96    
Minimum Humidity 79    
Precipitation  
Precipitation 0.99 in - - ()
Sea Level Pressure  
Sea Level Pressure 29.98 in    
Wind  
Wind Speed 13 mph (North)    
Max Wind Speed 23 mph    
Max Gust Speed 32 mph    
Visibility 4 miles    
Events Rain , Snow    
Averages and records for this station are not official NWS values.
T = Trace of Precipitation, MM = Missing Value Source: NWS Daily Summary

Daily Weather History Graph

Daily Weather History Graph

Search for Another Location

Airport or City:

Trip Planner

Search our weather history database for the weather conditions in past years. The results will help you decide how hot, cold, wet, or windy it might be!

Date:

Astronomy

Mar. 29, 2014 Rise Set
Actual Time 7:21 AM EDT 7:53 PM EDT
Civil Twilight 6:53 AM EDT 8:20 PM EDT
Nautical Twilight 6:21 AM EDT 8:53 PM EDT
Astronomical Twilight 5:48 AM EDT 9:26 PM EDT
Moon 6:29 AM EDT (3/29) 6:57 PM EDT (3/29)
Length of Visible Light 13h 27m
Length of Day
12h 32m
Waning Crescent, 2% of the Moon is Illuminated
Mar 29
Waning Crescent
Mar 30
New
Apr 7
First Quarter
Apr 15
Full
Apr 22
Last Quarter

Hourly Weather History & Observations

Time (EDT) Temp. Windchill Dew Point Humidity Pressure Visibility Wind Dir Wind Speed Gust Speed Precip Events Conditions
12:53 AM 37.0 °F 31.6 °F 34.0 °F 89% 30.13 in 10.0 mi NNE 6.9 mph - N/A   Clear
1:53 AM 36.0 °F 30.3 °F 33.1 °F 89% 30.13 in 10.0 mi NE 6.9 mph - N/A   Clear
2:53 AM 36.0 °F 31.1 °F 33.1 °F 89% 30.11 in 10.0 mi ENE 5.8 mph - N/A   Clear
3:53 AM 36.0 °F 29.6 °F 33.1 °F 89% 30.07 in 9.0 mi ENE 8.1 mph - N/A   Clear
4:53 AM 36.0 °F 29.6 °F 33.1 °F 89% 30.07 in 9.0 mi NE 8.1 mph - N/A   Clear
5:53 AM 37.0 °F 31.0 °F 34.0 °F 89% 30.05 in 8.0 mi ENE 8.1 mph - N/A   Mostly Cloudy
6:53 AM 37.0 °F 29.8 °F 34.0 °F 89% 30.01 in 8.0 mi ENE 10.4 mph - N/A   Clear
7:19 AM 37.9 °F 30.0 °F 35.1 °F 89% 29.99 in 8.0 mi ENE 12.7 mph - N/A   Mostly Cloudy
7:53 AM 39.0 °F 31.0 °F 35.1 °F 86% 30.00 in 6.0 mi NE 13.8 mph - N/A   Overcast
8:53 AM 39.0 °F 31.4 °F 35.1 °F 86% 29.99 in 8.0 mi NE 12.7 mph - N/A   Overcast
9:53 AM 37.9 °F 29.6 °F 32.0 °F 79% 29.96 in 8.0 mi NE 13.8 mph 23.0 mph 0.00 in Rain Light Rain
10:18 AM 37.0 °F 29.3 °F 33.1 °F 86% 29.98 in 1.8 mi North 11.5 mph - 0.06 in Rain Rain
10:26 AM 37.0 °F 30.4 °F 33.1 °F 86% 30.00 in 2.0 mi North 9.2 mph - 0.11 in Rain Rain
10:53 AM 37.0 °F 29.3 °F 34.0 °F 89% 30.01 in 2.0 mi NNW 11.5 mph - 0.18 in Rain Rain
11:13 AM 36.0 °F 28.0 °F 34.0 °F 93% 29.98 in 1.8 mi North 11.5 mph - 0.07 in Rain Heavy Rain
11:44 AM 36.0 °F 25.6 °F 34.0 °F 93% 29.95 in 1.8 mi North 18.4 mph - 0.20 in Rain Rain
11:53 AM 36.0 °F 26.0 °F 34.0 °F 93% 29.98 in 1.8 mi North 17.3 mph 25.3 mph 0.24 in Rain Rain
12:48 PM 35.6 °F 24.5 °F 33.8 °F 93% 29.91 in 2.0 mi North 20.7 mph 31.1 mph 0.22 in Rain Rain
12:53 PM 36.0 °F 24.7 °F 33.1 °F 89% 29.93 in 2.0 mi North 21.9 mph 31.1 mph 0.23 in Rain Rain
1:53 PM 35.1 °F 25.9 °F 32.0 °F 89% 29.94 in 2.0 mi North 13.8 mph 25.3 mph 0.17 in Rain Rain
2:25 PM 35.1 °F 23.8 °F 32.0 °F 89% 29.91 in 4.0 mi North 20.7 mph 28.8 mph 0.04 in Rain Rain
2:53 PM 34.0 °F 22.7 °F 32.0 °F 92% 29.92 in 5.0 mi North 19.6 mph 24.2 mph 0.05 in Rain Rain
3:53 PM 34.0 °F 22.4 °F 32.0 °F 92% 29.89 in 5.0 mi North 20.7 mph 29.9 mph 0.06 in Rain Rain
4:53 PM 34.0 °F 23.0 °F 30.9 °F 89% 29.89 in 5.0 mi North 18.4 mph 28.8 mph 0.03 in Rain Rain
5:53 PM 34.0 °F 22.1 °F 30.9 °F 89% 29.90 in 5.0 mi North 21.9 mph 28.8 mph 0.01 in Rain Rain
6:17 PM 33.1 °F 21.9 °F 30.9 °F 92% 29.89 in 2.0 mi North 18.4 mph - 0.01 in Rain Rain
6:53 PM 33.1 °F 20.9 °F 30.9 °F 92% 29.94 in 1.5 mi North 21.9 mph 28.8 mph 0.02 in Rain Rain
7:31 PM 33.1 °F 22.2 °F 30.9 °F 92% 29.93 in 1.0 mi NNW 17.3 mph 29.9 mph 0.00 in Rain Rain
7:35 PM 33.1 °F 20.6 °F 30.9 °F 92% 29.93 in 0.8 mi NNW 23.0 mph 28.8 mph 0.00 in Rain Rain
7:51 PM 33.8 °F 22.5 °F 30.2 °F 87% 29.94 in 0.8 mi NNW 19.6 mph 27.6 mph 0.00 in Snow Light Snow
7:53 PM 33.1 °F 20.9 °F 30.9 °F 92% 29.96 in 0.8 mi NNW 21.9 mph 31.1 mph 0.00 in Snow Light Snow
8:02 PM 33.1 °F 22.6 °F 30.9 °F 92% 29.94 in 1.0 mi NNW 16.1 mph 31.1 mph 0.00 in Snow Light Snow
8:38 PM 32.0 °F 19.8 °F 30.9 °F 96% 29.95 in 1.5 mi NNW 20.7 mph 32.2 mph 0.00 in Snow Light Snow
8:53 PM 32.0 °F 19.8 °F 30.0 °F 92% 29.98 in 1.2 mi NNW 20.7 mph 32.2 mph 0.00 in Snow Light Snow
9:39 PM 33.1 °F 21.5 °F 30.0 °F 89% 29.98 in 2.0 mi NNW 19.6 mph 28.8 mph 0.00 in Snow Light Snow
9:53 PM 33.1 °F 22.6 °F 30.0 °F 89% 30.01 in 2.0 mi NNW 16.1 mph 28.8 mph 0.00 in Snow Light Snow
10:10 PM 33.1 °F 21.2 °F 30.0 °F 89% 29.99 in 1.5 mi NNW 20.7 mph - 0.00 in Snow Light Snow
10:42 PM 33.1 °F 21.5 °F 30.0 °F 89% 30.00 in 2.5 mi NNW 19.6 mph 32.2 mph 0.00 in Snow Light Snow
10:53 PM 33.1 °F 20.9 °F 30.0 °F 89% 30.04 in 3.0 mi NNW 21.9 mph 32.2 mph 0.00 in Snow Light Snow
11:53 PM 33.1 °F 21.5 °F 30.0 °F 89% 30.05 in 7.0 mi NNW 19.6 mph 26.5 mph 0.00 in   Overcast